Change the Weather History Date:

Tuesday, April 9, 2013

  Actual Average Record
Temperature  
Mean Temperature 40 °F -  
Max Temperature 43 °F 49 °F 66 °F (1987)
Min Temperature 37 °F 28 °F 14 °F (2007)
Degree Days  
Heating Degree Days 25    
Moisture  
Dew Point 39 °F    
Average Humidity 96    
Maximum Humidity 99    
Minimum Humidity 91    
Precipitation  
Precipitation 0.00 in - - ()
Sea Level Pressure  
Sea Level Pressure 29.99 in    
Wind  
Wind Speed 3 mph (ENE)    
Max Wind Speed 10 mph    
Max Gust Speed -    
Visibility 4 miles    
Events Fog , Rain    
Averages and records for this station are not official NWS values.
T = Trace of Precipitation, MM = Missing Value Source: NWS Daily Summary

Daily Weather History Graph

Daily Weather History Graph

Search for Another Location

Airport or City:

Trip Planner

Search our weather history database for the weather conditions in past years. The results will help you decide how hot, cold, wet, or windy it might be!

Date:

Astronomy

Apr. 09, 2013 Rise Set
Actual Time 7:08 AM EDT 8:18 PM EDT
Civil Twilight 6:39 AM EDT 8:48 PM EDT
Nautical Twilight 6:04 AM EDT 9:23 PM EDT
Astronomical Twilight 5:27 AM EDT 10:01 PM EDT
Moon 6:32 AM EDT (4/9) 7:53 PM EDT (4/9)
Length of Visible Light 14h 08m
Length of Day
13h 09m
Waning Crescent, 1% of the Moon is Illuminated
Apr 9
Waning Crescent
Apr 10
New
Apr 18
First Quarter
Apr 25
Full
May 2
Last Quarter

Hourly Weather History & Observations

Time (EDT) Temp. Windchill Dew Point Humidity Pressure Visibility Wind Dir Wind Speed Gust Speed Precip Events Conditions
12:15 AM 38.3 °F - 37.4 °F 97% 29.96 in 3.0 mi Calm Calm - N/A   Overcast
12:35 AM 39.2 °F - 38.3 °F 97% 29.96 in 5.0 mi Calm Calm - N/A   Overcast
12:55 AM 39.4 °F - 38.5 °F 97% 29.97 in 4.0 mi Calm Calm - N/A   Overcast
1:15 AM 39.4 °F - 38.5 °F 97% 29.99 in 3.0 mi Calm Calm - N/A   Overcast
1:35 AM 39.2 °F 35.0 °F 38.5 °F 97% 30.01 in 3.0 mi SSW 5.8 mph - N/A   Overcast
2:15 AM 39.2 °F 35.9 °F 38.5 °F 97% 30.03 in 0.8 mi SSW 4.6 mph - N/A   Overcast
2:35 AM 39.0 °F - 38.3 °F 97% 30.03 in 4.0 mi Calm Calm - N/A   Overcast
2:55 AM 38.8 °F - 38.3 °F 98% 30.03 in 1.5 mi Calm Calm - N/A   Overcast
3:15 AM 38.8 °F - 38.1 °F 97% 30.03 in 0.8 mi Calm Calm - N/A   Overcast
3:35 AM 39.2 °F - 38.3 °F 97% 30.03 in 1.0 mi Calm Calm - N/A   Overcast
3:55 AM 38.8 °F 36.5 °F 38.3 °F 98% 30.03 in 0.5 mi NE 3.5 mph - N/A Fog Fog
4:15 AM 38.8 °F 35.4 °F 38.3 °F 98% 30.01 in 0.8 mi NE 4.6 mph - N/A   Overcast
4:35 AM 38.5 °F - 37.8 °F 97% 30.01 in 0.5 mi Calm Calm - N/A Fog Fog
4:55 AM 38.3 °F 35.9 °F 37.6 °F 97% 30.01 in 0.5 mi SE 3.5 mph - N/A Fog Fog
5:15 AM 38.3 °F 35.9 °F 37.6 °F 97% 30.02 in 0.8 mi East 3.5 mph - N/A   Overcast
5:35 AM 37.9 °F 35.5 °F 37.4 °F 98% 30.01 in 0.5 mi ENE 3.5 mph - N/A Fog Fog
5:55 AM 37.9 °F 34.4 °F 37.4 °F 98% 30.03 in 0.8 mi SE 4.6 mph - N/A   Overcast
6:15 AM 37.9 °F 34.4 °F 37.4 °F 98% 30.03 in 0.8 mi ESE 4.6 mph - N/A   Overcast
6:35 AM 37.8 °F 33.3 °F 37.4 °F 99% 30.03 in 0.8 mi SE 5.8 mph - N/A   Overcast
6:55 AM 37.9 °F 32.7 °F 37.4 °F 98% 30.05 in 0.8 mi SE 6.9 mph - N/A   Overcast
7:15 AM 38.3 °F 34.8 °F 37.6 °F 97% 30.04 in 0.5 mi ESE 4.6 mph - N/A Fog Fog
7:34 AM 38.3 °F 34.8 °F 37.6 °F 97% 30.04 in 0.5 mi ESE 4.6 mph - N/A Fog Fog
7:55 AM 37.9 °F 33.5 °F 37.4 °F 98% 30.04 in 1.0 mi ESE 5.8 mph - N/A   Overcast
8:15 AM 37.9 °F 32.7 °F 37.4 °F 98% 30.03 in 0.8 mi ESE 6.9 mph - N/A   Overcast
8:34 AM 38.3 °F 33.2 °F 37.6 °F 97% 30.03 in 0.5 mi ESE 6.9 mph - N/A Fog Fog
8:55 AM 38.3 °F 32.5 °F 37.8 °F 98% 30.03 in 0.5 mi ESE 8.1 mph - N/A Fog Fog
9:15 AM 38.5 °F 34.1 °F 37.8 °F 97% 30.02 in 0.8 mi East 5.8 mph - N/A   Overcast
9:34 AM 38.8 °F 35.4 °F 38.3 °F 98% 30.02 in 1.0 mi ESE 4.6 mph - N/A   Overcast
9:55 AM 39.2 °F 35.0 °F 38.3 °F 97% 30.03 in 3.0 mi ESE 5.8 mph - N/A   Overcast
10:15 AM 39.2 °F 34.2 °F 38.5 °F 97% 30.02 in 2.5 mi ESE 6.9 mph - N/A   Overcast
10:35 AM 39.4 °F 35.2 °F 38.7 °F 97% 30.01 in 2.5 mi ENE 5.8 mph - N/A   Overcast
10:55 AM 39.7 °F 37.6 °F 39.2 °F 98% 30.03 in 4.0 mi East 3.5 mph - N/A   Overcast
11:15 AM 40.1 °F 38.0 °F 39.2 °F 97% 30.04 in 4.0 mi ESE 3.5 mph - N/A Rain Light Rain
11:35 AM 40.1 °F 38.0 °F 39.2 °F 97% 30.04 in 2.0 mi East 3.5 mph - N/A   Overcast
11:55 AM 40.1 °F 38.0 °F 39.4 °F 97% 30.04 in 2.0 mi ESE 3.5 mph - N/A   Unknown
12:15 PM 40.1 °F 36.1 °F 39.4 °F 97% 30.02 in 2.5 mi ENE 5.8 mph - N/A   Unknown
12:35 PM 40.3 °F - 39.6 °F 97% 30.02 in 4.0 mi Calm Calm - N/A   Overcast
12:55 PM 40.6 °F 37.5 °F 39.7 °F 97% 30.01 in 1.5 mi East 4.6 mph - N/A   Overcast
1:15 PM 41.0 °F 39.0 °F 39.7 °F 95% 30.01 in 2.5 mi ENE 3.5 mph - N/A   Overcast
1:35 PM 41.0 °F 38.0 °F 39.7 °F 95% 29.96 in 2.5 mi ESE 4.6 mph - N/A   Overcast
1:55 PM 41.2 °F 38.2 °F 40.1 °F 96% 29.96 in 10.0 mi ESE 4.6 mph - N/A Rain Light Rain
2:14 PM 41.4 °F 39.4 °F 40.1 °F 95% 29.94 in 2.5 mi East 3.5 mph - N/A   Light Drizzle
2:35 PM 41.4 °F 36.8 °F 40.1 °F 95% 29.91 in 5.0 mi ESE 6.9 mph - N/A   Overcast
2:55 PM 41.9 °F - 40.5 °F 95% 29.92 in 2.0 mi Calm Calm - N/A   Unknown
3:15 PM 42.1 °F 39.2 °F 41.0 °F 96% 29.89 in 1.2 mi NE 4.6 mph - N/A   Unknown
3:35 PM 42.3 °F 38.6 °F 41.0 °F 95% 29.91 in 0.2 mi NNE 5.8 mph - N/A   Unknown
3:55 PM 42.3 °F 40.5 °F 41.2 °F 96% 29.93 in 0.5 mi North 3.5 mph - N/A   Unknown
4:15 PM 42.3 °F 40.5 °F 41.2 °F 96% 29.92 in 1.5 mi East 3.5 mph - N/A   Unknown
4:35 PM 42.3 °F - 41.2 °F 96% 29.93 in 2.5 mi Calm Calm - N/A   Unknown
4:55 PM 42.3 °F 39.4 °F 41.2 °F 96% 29.91 in 2.0 mi NE 4.6 mph - N/A   Unknown
5:15 PM 42.4 °F 40.7 °F 41.4 °F 96% 29.90 in 5.0 mi NNE 3.5 mph - N/A   Unknown
5:35 PM 42.8 °F 37.0 °F 41.4 °F 95% 29.94 in 4.0 mi NNW 10.4 mph - N/A   Unknown
5:54 PM 42.8 °F 41.1 °F 41.2 °F 94% 29.95 in 10.0 mi NNE 3.5 mph - N/A Rain Light Rain
6:15 PM 42.8 °F 39.3 °F 41.2 °F 94% 29.95 in 10.0 mi NNE 5.8 mph - N/A   Overcast
6:35 PM 42.8 °F 39.3 °F 41.0 °F 93% 29.96 in 10.0 mi North 5.8 mph - N/A   Overcast
6:55 PM 42.8 °F 38.0 °F 40.6 °F 92% 29.96 in 10.0 mi North 8.1 mph - N/A   Overcast
7:15 PM 42.6 °F 39.0 °F 40.5 °F 92% 29.96 in 10.0 mi North 5.8 mph - N/A   Overcast
7:35 PM 42.8 °F 39.3 °F 40.6 °F 92% 29.96 in 10.0 mi North 5.8 mph - N/A   Overcast
7:55 PM 42.8 °F 39.3 °F 40.8 °F 93% 29.97 in 10.0 mi North 5.8 mph - N/A   Overcast
8:15 PM 42.8 °F 39.3 °F 41.0 °F 93% 29.97 in 7.0 mi NNE 5.8 mph - N/A Rain Light Rain
8:35 PM 42.8 °F 39.3 °F 41.0 °F 93% 29.96 in 10.0 mi NNE 5.8 mph - N/A   Overcast
8:55 PM 43.0 °F 38.2 °F 41.0 °F 93% 29.97 in 10.0 mi NNE 8.1 mph - N/A   Overcast
9:15 PM 42.8 °F 38.0 °F 41.0 °F 93% 29.98 in 10.0 mi NNE 8.1 mph - N/A   Overcast
9:34 PM 42.8 °F 38.6 °F 41.0 °F 93% 29.99 in 7.0 mi NE 6.9 mph - N/A   Unknown
9:55 PM 42.8 °F 38.6 °F 40.6 °F 92% 30.01 in 10.0 mi NE 6.9 mph - N/A Rain Light Rain
10:15 PM 42.3 °F 38.6 °F 40.1 °F 92% 30.01 in 10.0 mi NE 5.8 mph - N/A   Overcast
10:55 PM 41.9 °F 37.5 °F 39.4 °F 91% 30.02 in 10.0 mi NNE 6.9 mph - N/A   Overcast
11:15 PM 41.4 °F 36.2 °F 39.2 °F 92% 30.02 in 10.0 mi NNE 8.1 mph - N/A   Overcast
11:34 PM 41.2 °F 36.6 °F 38.8 °F 91% 30.01 in 10.0 mi NNE 6.9 mph - N/A   Overcast
11:55 PM 41.0 °F 36.4 °F 38.7 °F 91% 30.01 in 10.0 mi NE 6.9 mph - N/A   Overcast